[[{"header":{"parameterUnit":"m.s-1","parameterCategory":2,"la1":30.2991,"la2":30.254,"lo1":-89.0895,"lo2":-89.0444,"dy":0.0017,"dx":0.0017,"nx":28,"ny":28,"refTime":"2024-07-10T21:00:00:Z","depth":"0","parameterNumber":2,"parameterNumberName":"U-component_of_CURRENTS"},"data":[0,0,0,0,0,0,0,0,0,0,0,0,0,0,0,0,0,0,0,0,0,0,0,0,0,0,0,0,0,0,0,0,0,0,0,0,0,0,0,0,0,0,0,0,0,0,0,0,0,0,0,0,0,0,0,0,0,0,0.1797,0.1799,0,0.1926,0.1927,0.1929,0.2002,0.2003,0.2003,0.2004,0.2055,0.2056,0.2057,0,0,0,0,0,0,0,0,0,0,0,0,0,0.1664,0.1665,0.1797,0.1799,0.1801,0.1926,0.1928,0.1929,0.2002,0.2003,0.2003,0.2004,0.2055,0.2056,0.2057,0,0,0,0,0,0,0,0,0,0,0,0,0,0.1748,0.1666,0.1797,0.1854,0.186,0.1926,0.1928,0.193,0.2002,0.2003,0.2003,0.2004,0.2055,0.2056,0.2058,0.2053,0,0,0.2062,0.2063,0,0,0,0,0,0,0,0,0.1743,0.1752,0.1844,0.185,0.1857,0.1951,0.19,0.1968,0.2002,0.1946,0.2004,0.2004,0.2014,0.2019,0.204,0.2055,0.2058,0.2062,0.2063,0.2064,0.2064,0,0,0,0,0,0,0,0.1737,0.1748,0.1846,0.1845,0.1854,0.189,0.1902,0.1913,0.1972,0.1951,0.1957,0.1975,0.2017,0.2038,0.2041,0.2058,0.2062,0.2063,0.2064,0.2065,0.211,0.211,0,0,0,0,0,0,0.1722,0.1742,0.1842,0.185,0.1803,0.1892,0.1905,0.1918,0.1974,0.1984,0.1974,0.1978,0.2036,0.204,0.2043,0.2053,0.2064,0.2065,0.2066,0.2109,0.211,0.211,0,0,0,0,0,0,0.1718,0.1729,0.1837,0.1801,0.1817,0.1893,0.1908,0.1921,0.1946,0.1992,0.2001,0.1986,0.2036,0.2041,0.2058,0.2055,0.2066,0.2067,0.2109,0.2109,0.211,0.2064,0,0,0,0,0,0,0.1714,0.1727,0.1725,0.1799,0.1819,0.187,0.1908,0.1923,0.1956,0.1962,0.2005,0.2011,0.2037,0.2056,0.2059,0.2057,0.2068,0.2108,0.2109,0.211,0.2065,0.2063,0.2061,0,0,0,0,0,0.1709,0.1714,0.1724,0.1737,0.1816,0.1869,0.1882,0.1937,0.1956,0.1962,0.1996,0.201,0.2063,0.2057,0.2061,0.2059,0.2108,0.2109,0.211,0.2066,0.2063,0.2061,0,0,0,0,0,0,0.1636,0.1724,0.1737,0.1762,0.1805,0.1883,0.1897,0.1932,0.1965,0.1966,0.2008,0.2016,0.2038,0.2051,0.2044,0.2077,0.209,0.2091,0.2055,0.2053,0.2051,0.2069,0.2069,0,0,0,0,0,0.1621,0.1662,0.1725,0.1741,0.1759,0.1822,0.1849,0.1884,0.1929,0.1946,0.1978,0.2011,0.2044,0.2049,0.2081,0.2082,0.2116,0.2088,0.2086,0.2084,0.2103,0.2132,0.2134,0.2112,0.2112,0.2112,0,0,0.1597,0.165,0.167,0.173,0.1767,0.1795,0.1839,0.1876,0.1902,0.1942,0.1974,0.2006,0.2047,0.2066,0.2075,0.2073,0.2109,0.2085,0.2083,0.2104,0.2133,0.2135,0.2137,0.2113,0.2113,0.2113,0,0,0.1581,0.161,0.1641,0.1676,0.1733,0.1771,0.1777,0.1844,0.1873,0.1904,0.1949,0.1979,0.2016,0.2052,0.2074,0.2076,0.2106,0.2079,0.2069,0.2095,0.2097,0.2099,0.2146,0.2153,0.2065,0.2065,0.2065,0,0.1546,0.1592,0.165,0.168,0.1709,0.1755,0.1775,0.181,0.1874,0.1898,0.1907,0.1995,0.2018,0.2062,0.2069,0.2071,0.2098,0.207,0.2091,0.2094,0.2097,0.2145,0.2153,0.2063,0.2063,0.2064,0.2064,0,0.155,0.1587,0.1601,0.1661,0.169,0.1715,0.1767,0.1791,0.1825,0.1868,0.1922,0.1965,0.2019,0.2026,0.2049,0.2083,0.2101,0.2092,0.2093,0.2096,0.2147,0.2156,0.206,0.2061,0.2062,0.2062,0,0,0.1485,0.1588,0.1592,0.1624,0.1685,0.1712,0.1742,0.1793,0.1823,0.1869,0.1918,0.1972,0.2001,0.203,0.2057,0.208,0.2118,0.209,0.2092,0.2131,0.2193,0.2213,0.2226,0.2103,0.2105,0.2106,0.222,0,0.147,0.1529,0.1582,0.1622,0.1656,0.1705,0.1732,0.1779,0.1825,0.1876,0.1929,0.1985,0.1998,0.2026,0.2048,0.2118,0.214,0.209,0.2192,0.2196,0.2207,0.2236,0.2198,0.2298,0.2229,0.2231,0.2232,0,0.1456,0.1509,0.155,0.1633,0.1645,0.1669,0.1727,0.176,0.1832,0.1869,0.1925,0.1977,0.2046,0.2042,0.2149,0.2114,0.2153,0.2194,0.2198,0.2245,0.2233,0.2285,0.2317,0.2227,0.2246,0.2245,0.2244,0,0.1408,0.1486,0.1522,0.1548,0.1633,0.1657,0.1693,0.1758,0.1794,0.1874,0.1912,0.1992,0.2049,0.2108,0.2203,0.2174,0.2321,0.2283,0.2341,0.2343,0.235,0.2351,0.2305,0.2344,0.2344,0.2344,0.2343,0,0.1393,0.1429,0.1506,0.1533,0.157,0.163,0.1673,0.172,0.1787,0.184,0.1905,0.1975,0.2065,0.2162,0.2221,0.2334,0.2334,0.2367,0.2378,0.2334,0.2332,0.2285,0.2238,0.2348,0.2347,0.2346,0.2345,0,0.1368,0.1412,0.1464,0.1539,0.1561,0.1588,0.1668,0.1696,0.176,0.1834,0.1864,0.1979,0.2122,0.2223,0.235,0.2367,0.2407,0.2494,0.2454,0.2458,0.2402,0.2355,0.2302,0.2242,0.257,0.2572,0.2573,0,0.1372,0.1398,0.146,0.1473,0.1515,0.1566,0.1596,0.1676,0.1718,0.185,0.1886,0.2041,0.2155,0.2359,0.2459,0.2584,0.2476,0.2578,0.2506,0.2416,0.2371,0.2257,0.22,0.2501,0.2502,0.2502,0.2502,0,0.1393,0.1403,0.1438,0.1454,0.1485,0.1526,0.1587,0.1619,0.1719,0.1786,0.1907,0.201,0.2239,0.2364,0.2526,0.2596,0.2452,0.2587,0.2495,0.2327,0.22,0.2141,0.2421,0.2505,0.2505,0.2505,0.2504,0.2504,0.1399,0.1413,0.1431,0.1444,0.1455,0.1476,0.1508,0.1575,0.1644,0.1745,0.1879,0.1995,0.2194,0.2437,0.2502,0.2545,0.2498,0.2477,0.2437,0.2337,0.2237,0.2539,0.2626,0.2626,0.2627,0.2627,0.2627,0,0.142,0.1424,0.1423,0.1428,0.1401,0.143,0.1487,0.1512,0.158,0.1687,0.1795,0.1963,0.2109,0.2262,0.2416,0.2381,0.2279,0.232,0.213,0.2088,0.2372,0.2326,0.2349,0.2349,0.2349,0.2349,0.2349,0.2349,0.1437,0.1437,0.1427,0.138,0.136,0.1356,0.1379,0.1421,0.1488,0.158,0.1658,0.1768,0.1989,0.2167,0.2214,0.219,0.2008,0.1968,0.191,0.2089,0.2098,0.2107,0.205,0.2015,0.2014,0.1567,0.1563,0.1561]},{"header":{"parameterUnit":"m.s-1","parameterCategory":2,"la1":30.2991,"la2":30.254,"lo1":-89.0895,"lo2":-89.0444,"dy":0.0017,"dx":0.0017,"nx":28,"ny":28,"refTime":"2024-07-10T21:00:00:Z","depth":"0","parameterNumber":3,"parameterNumberName":"V-component_of_CURRENTS"},"data":[0,0,0,0,0,0,0,0,0,0,0,0,0,0,0,0,0,0,0,0,0,0,0,0,0,0,0,0,0,0,0,0,0,0,0,0,0,0,0,0,0,0,0,0,0,0,0,0,0,0,0,0,0,0,0,0,0,0,0.086,0.086,0,0.0853,0.0853,0.0853,0.0834,0.0834,0.0834,0.0834,0.0671,0.0667,0.0663,0,0,0,0,0,0,0,0,0,0,0,0,0,0.0878,0.0878,0.086,0.086,0.0861,0.0853,0.0853,0.0852,0.0834,0.0834,0.0834,0.0834,0.0672,0.0668,0.0663,0,0,0,0,0,0,0,0,0,0,0,0,0,0.087,0.0878,0.086,0.0852,0.0851,0.0853,0.0853,0.0852,0.0835,0.0834,0.0834,0.0833,0.0674,0.0668,0.0662,0.0632,0,0,0.0643,0.0641,0,0,0,0,0,0,0,0,0.087,0.0869,0.0853,0.0852,0.0851,0.0845,0.08,0.0771,0.0835,0.0839,0.0834,0.0833,0.0716,0.0706,0.0706,0.0624,0.0617,0.0643,0.0639,0.0636,0.0635,0,0,0,0,0,0,0,0.0871,0.0869,0.0856,0.0853,0.0852,0.0855,0.0853,0.0795,0.0776,0.0839,0.0838,0.0839,0.0714,0.0712,0.0702,0.0615,0.0643,0.0637,0.0634,0.0631,0.0499,0.0499,0,0,0,0,0,0,0.0873,0.087,0.0856,0.0856,0.0861,0.0855,0.0852,0.0847,0.078,0.0771,0.084,0.0838,0.0723,0.0709,0.0696,0.0643,0.0636,0.0631,0.0627,0.0498,0.0499,0.0499,0,0,0,0,0,0,0.0874,0.0872,0.0857,0.0864,0.0862,0.0855,0.0849,0.0847,0.0843,0.0783,0.077,0.0837,0.0722,0.0704,0.0646,0.0636,0.0628,0.0622,0.0498,0.0498,0.0499,0.0544,0,0,0,0,0,0,0.0874,0.0872,0.0867,0.0864,0.0862,0.085,0.0849,0.0847,0.0845,0.0843,0.0776,0.0761,0.0721,0.0655,0.064,0.0628,0.0618,0.0498,0.0498,0.0499,0.0542,0.0546,0.0549,0,0,0,0,0,0.0875,0.0869,0.0867,0.0865,0.0856,0.085,0.0849,0.0842,0.0845,0.0838,0.08,0.0763,0.0646,0.065,0.0632,0.0618,0.0498,0.0498,0.0499,0.0541,0.0545,0.0548,0,0,0,0,0,0,0.0874,0.0867,0.0864,0.0856,0.085,0.0847,0.0846,0.0844,0.0814,0.0808,0.0757,0.0738,0.0687,0.0648,0.0654,0.0584,0.0569,0.0565,0.0607,0.061,0.0614,0.0633,0.0612,0,0,0,0,0,0.0872,0.0871,0.086,0.0858,0.0854,0.0851,0.0849,0.0843,0.0821,0.0809,0.0767,0.0721,0.0676,0.0641,0.0595,0.0546,0.0515,0.0529,0.0532,0.0535,0.054,0.0485,0.0484,0.05,0.05,0.05,0,0,0.0876,0.0872,0.0872,0.0859,0.0857,0.0852,0.0849,0.0844,0.0837,0.0791,0.0763,0.0726,0.0668,0.0623,0.0596,0.0585,0.0517,0.0536,0.0538,0.0542,0.0485,0.0484,0.0482,0.05,0.05,0.05,0,0,0.0888,0.0875,0.0877,0.0872,0.0864,0.0854,0.0853,0.0842,0.0832,0.0801,0.0774,0.0736,0.0664,0.0628,0.0599,0.059,0.0539,0.0574,0.0594,0.0541,0.0539,0.0537,0.0506,0.0501,0.057,0.057,0.057,0,0.0889,0.0889,0.0878,0.0879,0.0875,0.0856,0.0854,0.0841,0.0814,0.0803,0.0793,0.072,0.0669,0.0622,0.0625,0.0596,0.0565,0.0584,0.0545,0.0542,0.0539,0.0508,0.0501,0.0572,0.0572,0.0572,0.0572,0,0.0898,0.0902,0.0904,0.0895,0.0886,0.088,0.086,0.0846,0.0831,0.0818,0.0779,0.0727,0.0684,0.0665,0.0639,0.0598,0.0584,0.056,0.0536,0.054,0.0507,0.05,0.0576,0.0575,0.0574,0.0574,0,0,0.0898,0.0905,0.0906,0.0913,0.0891,0.0887,0.0871,0.0847,0.0839,0.081,0.08,0.0739,0.0724,0.0692,0.0656,0.0614,0.0572,0.0583,0.0579,0.0556,0.0467,0.0442,0.0431,0.0535,0.0534,0.0533,0.0456,0,0.0907,0.0915,0.0908,0.0918,0.0924,0.09,0.0883,0.0862,0.0839,0.0821,0.0781,0.075,0.0728,0.0708,0.0666,0.0599,0.0553,0.0596,0.0464,0.0461,0.0439,0.0421,0.0432,0.0362,0.0449,0.0447,0.0447,0,0.0922,0.0927,0.0932,0.0938,0.0933,0.0929,0.0903,0.0885,0.0852,0.0834,0.0809,0.0779,0.0733,0.0708,0.06,0.0628,0.0552,0.0499,0.0494,0.0449,0.0421,0.0369,0.0345,0.0225,0.0435,0.0436,0.0436,0,0.0943,0.095,0.0952,0.0954,0.0943,0.0942,0.0927,0.0897,0.0884,0.0851,0.0842,0.0784,0.0757,0.0665,0.0575,0.0575,0.0454,0.0432,0.0339,0.0337,0.031,0.0308,0.0155,0.0337,0.0337,0.0337,0.0337,0,0.0961,0.0973,0.0968,0.0976,0.0979,0.0965,0.0961,0.0938,0.0912,0.0907,0.0856,0.0848,0.0741,0.0671,0.0578,0.0448,0.045,0.0341,0.0308,0.0328,0.0328,0.0193,0.0152,0.0334,0.0335,0.0336,0.0336,0,0.0997,0.0987,0.1005,0.0998,0.0999,0.1005,0.0999,0.0992,0.0958,0.0957,0.0949,0.0888,0.0804,0.0695,0.0548,0.0448,0.0262,0.0271,0.0317,0.0291,0.0089,0.0052,-0.011,-0.0144,0.0151,0.015,0.0149,0,0.1004,0.1022,0.1031,0.1034,0.1036,0.1045,0.1045,0.1024,0.1029,0.0992,0.0999,0.0921,0.0897,0.0683,0.0495,0.0318,0.0225,0.0181,0.0172,0.0072,0.0006,-0.0017,-0.0034,0.016,0.0159,0.0158,0.0158,0,0.1034,0.1042,0.1049,0.1058,0.107,0.1087,0.1102,0.112,0.1097,0.11,0.1101,0.1081,0.089,0.073,0.047,0.0333,0.0116,0.0159,0.0031,-0.0021,-0.0033,-0.0078,0.0232,0.0151,0.0152,0.0152,0.0153,0.0153,0.1046,0.1062,0.1067,0.1078,0.1086,0.1119,0.115,0.1173,0.12,0.1214,0.1208,0.1182,0.0932,0.0593,0.0402,0.0026,0.0057,-0.0083,-0.0123,-0.0142,-0.017,0.0137,0.0032,0.0032,0.0032,0.0032,0.0032,0,0.1049,0.107,0.1081,0.1093,0.1101,0.1113,0.1168,0.1203,0.1258,0.1286,0.1312,0.1161,0.0856,0.0521,0.0047,-0.0205,-0.0276,-0.0346,-0.038,-0.0387,-0.0146,-0.0141,-0.026,-0.026,-0.026,-0.026,-0.0259,-0.0259,0.1052,0.1062,0.1078,0.1097,0.1106,0.1143,0.1186,0.1251,0.1291,0.1327,0.1301,0.1291,0.1031,0.0225,-0.0344,-0.0479,-0.0614,-0.0651,-0.0721,-0.0566,-0.0545,-0.0524,-0.0533,-0.0732,-0.0733,-0.0927,-0.0929,-0.0931]}],[{"header":{"parameterUnit":"m.s-1","parameterCategory":2,"la1":30.2991,"la2":30.254,"lo1":-89.0895,"lo2":-89.0444,"dy":0.0017,"dx":0.0017,"nx":28,"ny":28,"refTime":"2024-07-10T21:00:00:Z","depth":"2","parameterNumber":2,"parameterNumberName":"U-component_of_CURRENTS"},"data":[0,0,0,0,0,0,0,0,0,0,0,0,0,0,0,0,0,0,0,0,0,0,0,0,0,0,0,0,0,0,0,0,0,0,0,0,0,0,0,0,0,0,0,0,0,0,0,0,0,0,0,0,0,0,0,0,0,0,0.095,0.0949,0,0.0875,0.0874,0.0873,0.0865,0.0866,0.0867,0.0868,0.0975,0.0977,0.0979,0,0,0,0,0,0,0,0,0,0,0,0,0,0.0877,0.0879,0.095,0.0949,0.0948,0.0875,0.0874,0.0873,0.0865,0.0866,0.0867,0.0868,0.0975,0.0977,0.098,0,0,0,0,0,0,0,0,0,0,0,0,0,0.0865,0.088,0.095,0.0936,0.0935,0.0875,0.0874,0.0872,0.0865,0.0866,0.0868,0.0869,0.0974,0.0977,0.098,0.0972,0,0,0.0989,0.0991,0,0,0,0,0,0,0,0,0.0866,0.0868,0.0939,0.0937,0.0935,0.0882,0.0887,0.0915,0.0865,0.089,0.0868,0.087,0.0961,0.0965,0.0944,0.0978,0.0982,0.099,0.0991,0.0993,0.0994,0,0,0,0,0,0,0,0.0867,0.087,0.0919,0.0938,0.0936,0.0862,0.0864,0.089,0.0922,0.0888,0.0888,0.0881,0.0961,0.094,0.0947,0.0984,0.0989,0.0992,0.0994,0.0995,0.0972,0.0969,0,0,0,0,0,0,0.0889,0.0872,0.0921,0.0917,0.0904,0.0863,0.0865,0.0897,0.0917,0.092,0.088,0.0881,0.0935,0.0943,0.0951,0.0981,0.0993,0.0996,0.0997,0.0974,0.0971,0.0968,0,0,0,0,0,0,0.0888,0.0896,0.0924,0.089,0.0889,0.0865,0.0899,0.0894,0.0915,0.0909,0.0916,0.091,0.0936,0.0947,0.0981,0.0984,0.0997,0.1,0.0977,0.0973,0.097,0.1018,0,0,0,0,0,0,0.0887,0.0897,0.0921,0.0894,0.0892,0.0907,0.0898,0.0892,0.0906,0.0908,0.0937,0.0945,0.0938,0.0976,0.0984,0.0989,0.1002,0.098,0.0975,0.0971,0.1019,0.1016,0.1014,0,0,0,0,0,0.0885,0.0893,0.0923,0.0928,0.0931,0.0907,0.09,0.0883,0.0907,0.0909,0.0921,0.0946,0.095,0.0978,0.0987,0.0993,0.0982,0.0977,0.0971,0.1021,0.1017,0.1014,0,0,0,0,0,0,0.0872,0.0893,0.0925,0.0944,0.0945,0.0907,0.0892,0.091,0.0917,0.0933,0.0946,0.0953,0.0975,0.0966,0.0996,0.0958,0.0958,0.0955,0.0992,0.0989,0.0986,0.0994,0.1005,0,0,0,0,0,0.0887,0.0894,0.0918,0.0927,0.0939,0.0936,0.0927,0.0933,0.0933,0.0939,0.0956,0.0954,0.0947,0.0961,0.0952,0.0962,0.0965,0.0952,0.095,0.0948,0.0952,0.0971,0.0973,0.095,0.095,0.095,0,0,0.0874,0.0889,0.0892,0.0923,0.0921,0.0908,0.0934,0.0935,0.0924,0.0953,0.0952,0.0968,0.0947,0.0936,0.0943,0.0943,0.0947,0.0941,0.0941,0.0945,0.0966,0.0969,0.0972,0.0946,0.0947,0.0948,0,0,0.0831,0.0888,0.0882,0.0883,0.0901,0.0898,0.092,0.0926,0.0939,0.0949,0.0949,0.0966,0.0965,0.0938,0.0926,0.0902,0.0937,0.0897,0.0902,0.0921,0.0925,0.0929,0.092,0.0923,0.0892,0.0892,0.0892,0,0.0826,0.0841,0.087,0.086,0.0873,0.0905,0.0916,0.0898,0.0911,0.0938,0.0951,0.0944,0.0949,0.0927,0.091,0.0903,0.092,0.0934,0.0925,0.0929,0.0932,0.0923,0.0925,0.0894,0.0894,0.0893,0.0893,0,0.0788,0.0793,0.0785,0.0799,0.0814,0.082,0.0838,0.0857,0.0899,0.0897,0.0926,0.0919,0.0923,0.091,0.0914,0.0921,0.0928,0.0934,0.0956,0.0939,0.0928,0.093,0.0896,0.0895,0.0895,0.0895,0,0,0.0782,0.0774,0.0768,0.079,0.0807,0.0824,0.0817,0.0849,0.0862,0.0871,0.0894,0.0878,0.0918,0.0903,0.091,0.092,0.0957,0.0951,0.0952,0.098,0.1002,0.1104,0.1115,0.0995,0.0996,0.0996,0.0982,0,0.076,0.0748,0.0759,0.0752,0.0764,0.081,0.0809,0.0835,0.0851,0.0859,0.0872,0.0883,0.0895,0.093,0.0939,0.0971,0.0967,0.0959,0.098,0.098,0.1106,0.1123,0.0986,0.0974,0.0984,0.0984,0.0985,0,0.0731,0.0729,0.075,0.0783,0.0807,0.0811,0.0884,0.0882,0.0877,0.0908,0.0916,0.0917,0.0937,0.0946,0.0981,0.0994,0.1,0.1003,0.1003,0.1088,0.1087,0.0989,0.0977,0.0988,0.0988,0.0987,0.0987,0,0.0741,0.0729,0.0772,0.0775,0.0806,0.0857,0.0891,0.0907,0.0931,0.0936,0.0971,0.0964,0.1006,0.1009,0.1049,0.103,0.1089,0.1048,0.1116,0.1121,0.1001,0.0997,0.1046,0.1046,0.1046,0.1046,0.1046,0,0.0734,0.0745,0.0778,0.0793,0.0836,0.0887,0.0932,0.0954,0.0986,0.1001,0.1013,0.1031,0.1042,0.1073,0.1064,0.1138,0.1107,0.113,0.1141,0.101,0.1007,0.1014,0.1011,0.1046,0.1046,0.1046,0.1046,0,0.0723,0.075,0.0766,0.0819,0.0835,0.0874,0.0943,0.0952,0.103,0.1048,0.1071,0.1114,0.1192,0.1195,0.1206,0.1199,0.1217,0.1233,0.1082,0.1079,0.1207,0.1205,0.1276,0.128,0.1283,0.1286,0.1288,0,0.0741,0.0742,0.0764,0.0793,0.0821,0.0869,0.0884,0.0945,0.0954,0.1087,0.109,0.1201,0.124,0.1336,0.1298,0.1302,0.133,0.1235,0.117,0.1237,0.1238,0.1231,0.1225,0.0987,0.0987,0.0986,0.0986,0,0.0737,0.0735,0.0763,0.0782,0.0811,0.0799,0.0841,0.0858,0.094,0.101,0.1111,0.1175,0.1266,0.1245,0.1323,0.129,0.1231,0.1237,0.1336,0.0999,0.0978,0.0976,0.0975,0.0983,0.0984,0.0984,0.0984,0.0984,0.0752,0.0726,0.075,0.0771,0.0804,0.0763,0.0762,0.0827,0.0873,0.1001,0.1041,0.1162,0.1155,0.1225,0.1199,0.12,0.124,0.1198,0.1192,0.1187,0.1206,0.1197,0.1243,0.1245,0.1246,0.1248,0.1249,0,0.0719,0.069,0.0729,0.0744,0.0775,0.0775,0.0754,0.0763,0.0836,0.0949,0.1045,0.0991,0.1032,0.1102,0.105,0.105,0.0936,0.1078,0.0901,0.0906,0.0909,0.0907,0.0868,0.0868,0.0867,0.0866,0,0,0.0704,0.0683,0.0658,0.0694,0.0747,0.0721,0.0704,0.0747,0.081,0.0882,0.0969,0.1028,0.1082,0.0965,0.0921,0.0916,0.0906,0.089,0.1189,0.0986,0.0988,0.0971,0.0975,0,0,0,0,0]},{"header":{"parameterUnit":"m.s-1","parameterCategory":2,"la1":30.2991,"la2":30.254,"lo1":-89.0895,"lo2":-89.0444,"dy":0.0017,"dx":0.0017,"nx":28,"ny":28,"refTime":"2024-07-10T21:00:00:Z","depth":"2","parameterNumber":3,"parameterNumberName":"V-component_of_CURRENTS"},"data":[0,0,0,0,0,0,0,0,0,0,0,0,0,0,0,0,0,0,0,0,0,0,0,0,0,0,0,0,0,0,0,0,0,0,0,0,0,0,0,0,0,0,0,0,0,0,0,0,0,0,0,0,0,0,0,0,0,0,-0.0124,-0.0126,0,-0.0336,-0.0338,-0.034,-0.0372,-0.037,-0.0369,-0.0367,-0.036,-0.0361,-0.0362,0,0,0,0,0,0,0,0,0,0,0,0,0,-0.0071,-0.007,-0.0124,-0.0127,-0.013,-0.0336,-0.0338,-0.0341,-0.0372,-0.037,-0.0368,-0.0367,-0.036,-0.0361,-0.0363,0,0,0,0,0,0,0,0,0,0,0,0,0,-0.0165,-0.0069,-0.0123,-0.0173,-0.018,-0.0335,-0.0338,-0.0341,-0.0372,-0.037,-0.0368,-0.0366,-0.0359,-0.0361,-0.0363,-0.042,0,0,-0.0368,-0.0369,0,0,0,0,0,0,0,0,-0.0159,-0.0166,-0.0163,-0.017,-0.0178,-0.0329,-0.0318,-0.0358,-0.0373,-0.0295,-0.0367,-0.0365,-0.0334,-0.0338,-0.038,-0.0419,-0.0419,-0.0369,-0.037,-0.037,-0.0371,0,0,0,0,0,0,0,-0.0152,-0.0159,-0.0203,-0.0167,-0.0176,-0.0298,-0.0305,-0.0328,-0.0317,-0.0302,-0.0305,-0.0337,-0.0336,-0.0378,-0.0379,-0.0419,-0.0368,-0.037,-0.0371,-0.0372,-0.0497,-0.0499,0,0,0,0,0,0,-0.012,-0.0151,-0.0196,-0.021,-0.0168,-0.0299,-0.0308,-0.0279,-0.0322,-0.0329,-0.0339,-0.0338,-0.0376,-0.0377,-0.0378,-0.0373,-0.037,-0.0372,-0.0373,-0.0495,-0.0497,-0.05,0,0,0,0,0,0,-0.0117,-0.0119,-0.0188,-0.0193,-0.0211,-0.0301,-0.0271,-0.0285,-0.0287,-0.0353,-0.0355,-0.0322,-0.0374,-0.0376,-0.0368,-0.0375,-0.0373,-0.0375,-0.0492,-0.0496,-0.0499,-0.0408,0,0,0,0,0,0,-0.0113,-0.0115,-0.0075,-0.0188,-0.0209,-0.0244,-0.0274,-0.0291,-0.0315,-0.0314,-0.034,-0.034,-0.0373,-0.0365,-0.037,-0.0377,-0.0376,-0.0489,-0.0494,-0.0498,-0.0408,-0.0408,-0.0408,0,0,0,0,0,-0.011,-0.0085,-0.007,-0.0077,-0.015,-0.0244,-0.0264,-0.0323,-0.0315,-0.0314,-0.033,-0.0337,-0.0397,-0.0367,-0.0372,-0.038,-0.0487,-0.0492,-0.0497,-0.0409,-0.0408,-0.0408,0,0,0,0,0,0,-0.0031,-0.0089,-0.0076,-0.0059,-0.0121,-0.0249,-0.0269,-0.0299,-0.032,-0.0293,-0.0338,-0.0341,-0.035,-0.0385,-0.0351,-0.0441,-0.0455,-0.0461,-0.0386,-0.0386,-0.0386,-0.0371,-0.0378,0,0,0,0,0,0.0006,-0.001,-0.0059,-0.0062,-0.0064,-0.015,-0.0189,-0.0218,-0.0268,-0.0275,-0.0304,-0.0343,-0.0391,-0.0393,-0.0439,-0.046,-0.0488,-0.0486,-0.0485,-0.0484,-0.0483,-0.0522,-0.0522,-0.0516,-0.0516,-0.0516,0,0,0.002,-0.0016,-0.0022,-0.0052,-0.0097,-0.0137,-0.0165,-0.0203,-0.0242,-0.0267,-0.0298,-0.0327,-0.0398,-0.0435,-0.0445,-0.0448,-0.0505,-0.049,-0.0488,-0.0488,-0.0527,-0.0526,-0.0526,-0.052,-0.0519,-0.0518,0,0,-0.001,0.0043,0.0018,-0.0013,-0.0063,-0.0113,-0.0103,-0.0176,-0.0186,-0.0227,-0.0266,-0.0286,-0.0362,-0.0413,-0.0453,-0.048,-0.0502,-0.0507,-0.0479,-0.0515,-0.0515,-0.0514,-0.0546,-0.0549,-0.0503,-0.0503,-0.0503,0,0.0035,0.0008,-0.001,-0.004,-0.005,-0.0087,-0.0091,-0.0147,-0.0218,-0.0216,-0.0218,-0.0337,-0.0367,-0.0433,-0.0447,-0.0473,-0.0494,-0.0458,-0.0508,-0.0508,-0.0509,-0.0542,-0.0546,-0.05,-0.05,-0.05,-0.0501,0,-0.0001,-0.0024,-0.004,-0.0074,-0.0085,-0.0098,-0.0135,-0.0153,-0.0161,-0.0211,-0.0243,-0.0303,-0.0366,-0.0398,-0.0424,-0.0464,-0.0476,-0.0494,-0.0487,-0.0503,-0.0539,-0.0544,-0.0494,-0.0496,-0.0497,-0.0498,0,0,0.0088,-0.0026,-0.0033,-0.0039,-0.0069,-0.0079,-0.012,-0.0146,-0.0167,-0.0218,-0.0242,-0.0326,-0.0326,-0.0374,-0.0412,-0.0445,-0.0458,-0.0458,-0.0462,-0.0452,-0.0527,-0.0468,-0.047,-0.0467,-0.0468,-0.0469,-0.0545,0,0.0083,0.0028,-0.0018,-0.0056,-0.0062,-0.0072,-0.0104,-0.013,-0.0175,-0.0218,-0.0259,-0.0306,-0.0333,-0.0341,-0.0376,-0.0434,-0.0472,-0.0436,-0.0548,-0.0552,-0.0466,-0.0474,-0.0447,-0.0505,-0.0551,-0.0552,-0.0553,0,0.0089,0.0035,0.0034,-0.0018,0.0001,-0.0011,0.0,-0.0041,-0.0119,-0.0145,-0.0199,-0.025,-0.0297,-0.0323,-0.0421,-0.0388,-0.0451,-0.0505,-0.0509,-0.0489,-0.0504,-0.0505,-0.0515,-0.0563,-0.0563,-0.0562,-0.0561,0,0.0178,0.0085,0.0104,0.0096,0.0035,0.0066,0.006,0.0003,-0.0014,-0.0097,-0.011,-0.0201,-0.0223,-0.0313,-0.0403,-0.0409,-0.0511,-0.0541,-0.0564,-0.0561,-0.058,-0.0576,-0.0631,-0.0631,-0.0631,-0.0631,-0.063,0,0.0218,0.0205,0.0147,0.0157,0.0171,0.0157,0.0162,0.0119,0.0072,0.0049,-0.0039,-0.0082,-0.0217,-0.0293,-0.0389,-0.0469,-0.05,-0.0557,-0.0573,-0.0549,-0.0542,-0.0631,-0.063,-0.0633,-0.0633,-0.0632,-0.0632,0,0.0276,0.025,0.0233,0.0207,0.0202,0.0233,0.0213,0.0182,0.0171,0.0132,0.0126,0.0019,-0.0064,-0.02,-0.0359,-0.0431,-0.0536,-0.0571,-0.0523,-0.053,-0.0574,-0.0568,-0.0608,-0.0607,-0.0605,-0.0604,-0.0603,0,0.0316,0.0307,0.0275,0.0294,0.0284,0.0289,0.0264,0.0218,0.0185,0.0184,0.0176,0.0108,0.0047,-0.0127,-0.0292,-0.0442,-0.0499,-0.0518,-0.053,-0.0557,-0.057,-0.0567,-0.0563,-0.0536,-0.0535,-0.0534,-0.0533,0,0.0337,0.0333,0.0338,0.0343,0.0344,0.0283,0.0272,0.0265,0.0228,0.0251,0.027,0.0255,0.0099,-0.0047,-0.0232,-0.0336,-0.0482,-0.0497,-0.0556,-0.0521,-0.0488,-0.0501,-0.0501,-0.0523,-0.0524,-0.0524,-0.0525,-0.0525,0.0386,0.0363,0.0369,0.0385,0.0396,0.033,0.0304,0.0321,0.0329,0.0403,0.0326,0.0359,0.0145,-0.0044,-0.0213,-0.0367,-0.0395,-0.0474,-0.0479,-0.0485,-0.0437,-0.0401,-0.0412,-0.0412,-0.0412,-0.0412,-0.0413,0,0.038,0.0348,0.0386,0.0396,0.0434,0.04,0.0335,0.0339,0.0412,0.0474,0.0513,0.0357,0.0206,0.0028,-0.0187,-0.0349,-0.0379,-0.0388,-0.0418,-0.0427,-0.0435,-0.0387,-0.0348,-0.0348,-0.0348,-0.0348,0,0,0.0369,0.0355,0.0331,0.0394,0.0463,0.0433,0.0409,0.0469,0.0514,0.061,0.0654,0.0538,0.03,0.0135,-0.0102,-0.0202,-0.0264,-0.0212,-0.025,-0.0268,-0.0273,-0.0475,-0.0407,0,0,0,0,0]}],[{"header":{"parameterUnit":"m.s-1","parameterCategory":2,"la1":30.2991,"la2":30.254,"lo1":-89.0895,"lo2":-89.0444,"dy":0.0017,"dx":0.0017,"nx":28,"ny":28,"refTime":"2024-07-10T21:00:00:Z","depth":"4","parameterNumber":2,"parameterNumberName":"U-component_of_CURRENTS"},"data":[0,0,0,0,0,0,0,0,0,0,0,0,0,0,0,0,0,0,0,0,0,0,0,0,0,0,0,0,0,0,0,0,0,0,0,0,0,0,0,0,0,0,0,0,0,0,0,0,0,0,0,0,0,0,0,0,0,0,-0.0028,-0.0027,0,-0.0016,-0.0016,-0.0016,-0.0021,-0.0021,-0.0021,-0.0021,-0.0095,-0.0097,-0.0098,0,0,0,0,0,0,0,0,0,0,0,0,0,-0.0017,-0.0018,-0.0028,-0.0027,-0.0027,-0.0016,-0.0016,-0.0016,-0.0021,-0.0021,-0.0021,-0.0021,-0.0094,-0.0096,-0.0099,0,0,0,0,0,0,0,0,0,0,0,0,0,-0.0017,-0.0018,-0.0028,-0.0027,-0.0027,-0.0016,-0.0016,-0.0016,-0.0021,-0.0021,-0.0021,-0.0021,-0.0093,-0.0096,-0.0099,-0.0111,0,0,-0.0107,-0.0108,0,0,0,0,0,0,0,0,-0.0017,-0.0017,-0.0028,-0.0027,-0.0027,-0.0019,-0.0039,-0.0051,-0.0021,-0.0025,-0.0021,-0.0021,-0.0076,-0.008,-0.0078,-0.0115,-0.0118,-0.0107,-0.0109,-0.011,-0.0111,0,0,0,0,0,0,0,-0.0017,-0.0018,-0.0025,-0.0027,-0.0027,-0.0014,-0.0015,-0.0041,-0.0052,-0.0024,-0.0024,-0.002,-0.0077,-0.0076,-0.008,-0.0119,-0.0107,-0.011,-0.0111,-0.0112,-0.0196,-0.0197,0,0,0,0,0,0,-0.0017,-0.0018,-0.0025,-0.0024,-0.0021,-0.0014,-0.0015,-0.0022,-0.005,-0.0053,-0.002,-0.0021,-0.0071,-0.0077,-0.0083,-0.0113,-0.011,-0.0113,-0.0114,-0.0196,-0.0196,-0.0197,0,0,0,0,0,0,-0.0017,-0.0018,-0.0025,-0.0019,-0.0019,-0.0015,-0.0022,-0.0022,-0.0022,-0.0046,-0.0051,-0.0021,-0.0071,-0.0079,-0.0105,-0.0116,-0.0114,-0.0116,-0.0195,-0.0196,-0.0197,-0.0165,0,0,0,0,0,0,-0.0017,-0.0019,-0.0021,-0.0019,-0.0019,-0.0021,-0.0022,-0.0021,-0.0018,-0.0019,-0.0048,-0.0054,-0.0072,-0.0101,-0.0108,-0.0119,-0.0119,-0.0194,-0.0195,-0.0196,-0.0165,-0.0165,-0.0164,0,0,0,0,0,-0.0017,-0.0022,-0.0022,-0.0022,-0.0024,-0.0021,-0.002,-0.0018,-0.0018,-0.0019,-0.0037,-0.0054,-0.0114,-0.0103,-0.0112,-0.0124,-0.0194,-0.0195,-0.0196,-0.0165,-0.0165,-0.0164,0,0,0,0,0,0,-0.0011,-0.0023,-0.0023,-0.0029,-0.0025,-0.0021,-0.0017,-0.0018,-0.0029,-0.0032,-0.0056,-0.0064,-0.0091,-0.0114,-0.0102,-0.0153,-0.0159,-0.0162,-0.0133,-0.0132,-0.0132,-0.0107,-0.0121,0,0,0,0,0,-0.0012,-0.0027,-0.0024,-0.0029,-0.0024,-0.002,-0.0017,-0.0017,-0.0026,-0.003,-0.0049,-0.0076,-0.0103,-0.0121,-0.0145,-0.0172,-0.0165,-0.0188,-0.0188,-0.0187,-0.0174,-0.0181,-0.0179,-0.0201,-0.0201,-0.0201,0,0,-0.0009,-0.0018,-0.0024,-0.0029,-0.0024,-0.0018,-0.002,-0.0015,-0.0014,-0.0039,-0.0047,-0.0072,-0.0109,-0.0134,-0.015,-0.0155,-0.0173,-0.0189,-0.0188,-0.0175,-0.0182,-0.018,-0.0178,-0.0202,-0.0202,-0.0202,0,0,-0.0012,-0.0017,-0.0028,-0.0023,-0.0018,-0.0016,-0.0015,-0.0011,-0.0013,-0.0022,-0.0044,-0.0068,-0.0106,-0.0132,-0.0152,-0.0165,-0.0166,-0.0183,-0.0164,-0.0172,-0.0169,-0.0167,-0.0129,-0.0124,-0.0187,-0.0187,-0.0187,0,0.0005,-0.0019,-0.0026,-0.0025,-0.0016,-0.0015,-0.0007,-0.0009,-0.0016,-0.0016,-0.0023,-0.0068,-0.0102,-0.0134,-0.014,-0.0162,-0.015,-0.0161,-0.0168,-0.0166,-0.0164,-0.0127,-0.0121,-0.0186,-0.0186,-0.0186,-0.0186,0,-0.0006,-0.0015,-0.0014,-0.0018,-0.001,-0.0004,0.0001,0.0004,0.0003,0.0002,-0.0017,-0.0054,-0.0075,-0.0104,-0.0125,-0.0142,-0.0128,-0.016,-0.0163,-0.016,-0.012,-0.0115,-0.0184,-0.0184,-0.0184,-0.0185,0,0,0.004,-0.0015,-0.0004,-0.0014,-0.0004,0.0002,0.0011,0.0018,0.0028,0.0014,0.0024,-0.003,-0.0036,-0.0058,-0.0095,-0.0113,-0.009,-0.0129,-0.013,-0.0076,-0.0066,-0.0035,-0.0026,-0.0123,-0.0123,-0.0122,-0.0033,0,0.0051,0.0024,0.0008,0.0012,0.0007,0.0017,0.0028,0.0036,0.0039,0.0048,0.0018,0.0013,-0.0024,-0.003,-0.0053,-0.0086,-0.0079,-0.0108,-0.009,-0.0088,-0.005,-0.0021,-0.0121,-0.003,-0.0028,-0.0028,-0.0027,0,0.008,0.0045,0.0036,0.0013,0.002,0.0033,0.0062,0.0069,0.0083,0.0088,0.0084,0.0071,0.0054,0.0019,-0.0003,-0.0018,-0.0027,-0.0051,-0.0049,-0.0026,-0.0048,-0.0042,-0.0018,-0.0018,-0.0019,-0.002,-0.002,0,0.0122,0.0087,0.0071,0.007,0.0046,0.0062,0.0069,0.0091,0.0102,0.0128,0.0145,0.0124,0.0128,0.0097,0.0056,0.0036,0.0037,0.0003,0.0033,0.0037,-0.0031,-0.0035,0.0007,0.0007,0.0007,0.0006,0.0006,0,0.0151,0.0151,0.0088,0.0085,0.0092,0.0086,0.0113,0.0128,0.0148,0.0163,0.0174,0.0174,0.0146,0.0136,0.0093,0.009,0.0076,0.0062,0.006,-0.0017,-0.0021,-0.0025,-0.003,0.001,0.0009,0.0008,0.0008,0,0.0209,0.0168,0.0153,0.0114,0.0112,0.0132,0.0136,0.015,0.0181,0.0205,0.0222,0.0234,0.0238,0.0213,0.0177,0.0157,0.0132,0.0133,0.0096,0.0086,0.014,0.0135,0.0208,0.021,0.0211,0.0212,0.0213,0,0.0213,0.0207,0.0181,0.0183,0.017,0.0176,0.0184,0.0184,0.0188,0.0219,0.0228,0.0266,0.0266,0.0275,0.0225,0.0215,0.0186,0.0209,0.0144,0.0169,0.016,0.0152,0.0146,0.0216,0.0216,0.0217,0.0217,0,0.0215,0.0232,0.021,0.0213,0.0219,0.022,0.0218,0.022,0.0223,0.0233,0.0263,0.0285,0.0306,0.0292,0.0306,0.0263,0.021,0.0225,0.0221,0.016,0.018,0.0167,0.0159,0.0222,0.0222,0.0221,0.0221,0,0.0224,0.0222,0.0208,0.022,0.0241,0.0265,0.0258,0.0251,0.0257,0.0275,0.0268,0.0296,0.0301,0.0317,0.029,0.0302,0.0292,0.0281,0.0274,0.0268,0.0238,0.0269,0.0359,0,0,0,0,0,0.0199,0.02,0.0205,0.0214,0.0254,0.0264,0.0275,0.0261,0.0237,0.0272,0.0278,0.0292,0.032,0.0313,0.0336,0.0302,0.0281,0.0327,0.0263,0.0251,0.0245,0.02,0,0,0,0,0,0,0.0178,0.0186,0.0187,0.0218,0.0236,0.0264,0.0279,0.0273,0.028,0.0272,0.0284,0.0289,0.0306,0.0308,0.0331,0.0331,0.0293,0.0331,0.0331,0.0255,0.0249,0.0244,0.0196,0,0,0,0,0]},{"header":{"parameterUnit":"m.s-1","parameterCategory":2,"la1":30.2991,"la2":30.254,"lo1":-89.0895,"lo2":-89.0444,"dy":0.0017,"dx":0.0017,"nx":28,"ny":28,"refTime":"2024-07-10T21:00:00:Z","depth":"4","parameterNumber":3,"parameterNumberName":"V-component_of_CURRENTS"},"data":[0,0,0,0,0,0,0,0,0,0,0,0,0,0,0,0,0,0,0,0,0,0,0,0,0,0,0,0,0,0,0,0,0,0,0,0,0,0,0,0,0,0,0,0,0,0,0,0,0,0,0,0,0,0,0,0,0,0,0.004,0.004,0,0.0002,0.0002,0.0002,-0.0031,-0.0032,-0.0032,-0.0033,-0.0099,-0.01,-0.0101,0,0,0,0,0,0,0,0,0,0,0,0,0,0.0082,0.0082,0.004,0.004,0.0039,0.0002,0.0002,0.0001,-0.0031,-0.0032,-0.0033,-0.0033,-0.0098,-0.01,-0.0101,0,0,0,0,0,0,0,0,0,0,0,0,0,0.0057,0.0082,0.004,0.0017,0.0015,0.0002,0.0002,0.0001,-0.0031,-0.0032,-0.0033,-0.0033,-0.0098,-0.01,-0.0102,-0.0098,0,0,-0.0108,-0.0108,0,0,0,0,0,0,0,0,0.0059,0.0056,0.0021,0.0019,0.0016,-0.0012,-0.0008,-0.0034,-0.0031,-0.0012,-0.0033,-0.0034,-0.0073,-0.0077,-0.008,-0.0101,-0.0104,-0.0108,-0.0109,-0.011,-0.011,0,0,0,0,0,0,0,0.0061,0.0057,0.0027,0.0021,0.0017,0.0008,0.0004,-0.0013,-0.0037,-0.0014,-0.0017,-0.0023,-0.0074,-0.0078,-0.0082,-0.0105,-0.0108,-0.0109,-0.0111,-0.0111,-0.0189,-0.019,0,0,0,0,0,0,0.0063,0.0059,0.0028,0.0025,0.0034,0.0007,0.0003,-0.0001,-0.0037,-0.0043,-0.0022,-0.0025,-0.0074,-0.0079,-0.0084,-0.0126,-0.011,-0.0111,-0.0113,-0.0188,-0.0189,-0.019,0,0,0,0,0,0,0.0064,0.0061,0.0029,0.004,0.0035,0.0007,0.0003,-0.0001,-0.0021,-0.0043,-0.005,-0.0039,-0.0075,-0.0082,-0.0108,-0.0127,-0.0112,-0.0114,-0.0187,-0.0188,-0.019,-0.0181,0,0,0,0,0,0,0.0066,0.0062,0.0062,0.004,0.0035,0.0016,0.0004,-0.0002,-0.0023,-0.0027,-0.0059,-0.0065,-0.0076,-0.0105,-0.011,-0.0129,-0.0116,-0.0186,-0.0188,-0.0189,-0.018,-0.0182,-0.0183,0,0,0,0,0,0.0068,0.0076,0.0063,0.0059,0.0035,0.0016,0.0012,-0.0009,-0.0023,-0.003,-0.0053,-0.0065,-0.012,-0.0107,-0.0112,-0.0133,-0.0185,-0.0187,-0.0189,-0.0179,-0.0181,-0.0183,0,0,0,0,0,0,0.0087,0.0072,0.0057,0.0058,0.0033,0.0009,0.0005,-0.0016,-0.0038,-0.0045,-0.0068,-0.0075,-0.0108,-0.0121,-0.0106,-0.0162,-0.0158,-0.0161,-0.0149,-0.0151,-0.0153,-0.0147,-0.0117,0,0,0,0,0,0.0092,0.0097,0.0069,0.0065,0.0056,0.0026,0.0015,-0.0005,-0.0028,-0.0039,-0.0064,-0.0093,-0.0118,-0.0135,-0.0157,-0.018,-0.0185,-0.0202,-0.0203,-0.0204,-0.0205,-0.022,-0.0222,-0.0197,-0.0197,-0.0197,0,0,0.0095,0.0089,0.0088,0.007,0.0051,0.0034,0.0018,-0.0003,-0.0023,-0.0042,-0.0074,-0.0098,-0.0126,-0.0155,-0.0172,-0.0169,-0.0214,-0.0207,-0.0207,-0.0207,-0.0222,-0.0224,-0.0226,-0.0198,-0.0198,-0.0198,0,0,0.0102,0.0098,0.0099,0.0082,0.0054,0.0038,0.0027,-0.0007,-0.0025,-0.0054,-0.0079,-0.0113,-0.0148,-0.0174,-0.019,-0.0216,-0.0221,-0.023,-0.0233,-0.0247,-0.0249,-0.0251,-0.0254,-0.0256,-0.0231,-0.0231,-0.0231,0,0.01,0.0099,0.0093,0.0083,0.0065,0.0037,0.0016,0.0001,-0.0041,-0.006,-0.0065,-0.0133,-0.0158,-0.0199,-0.0209,-0.022,-0.0221,-0.0219,-0.0248,-0.0249,-0.0251,-0.0254,-0.0257,-0.0231,-0.0231,-0.0231,-0.0231,0,0.01,0.0095,0.0093,0.0073,0.0055,0.0036,0.0007,-0.0015,-0.0041,-0.0066,-0.0113,-0.0142,-0.0185,-0.0202,-0.0211,-0.0246,-0.0241,-0.0245,-0.0237,-0.0253,-0.0256,-0.0258,-0.023,-0.023,-0.023,-0.0231,0,0,0.01,0.0095,0.0091,0.0078,0.0046,0.0028,0.0003,-0.0034,-0.0056,-0.0093,-0.0127,-0.0173,-0.0195,-0.0215,-0.0239,-0.0253,-0.0267,-0.0252,-0.0253,-0.0245,-0.0288,-0.0282,-0.0284,-0.027,-0.0271,-0.0271,-0.0282,0,0.0091,0.0082,0.0077,0.0051,0.0036,0.0009,-0.0013,-0.0049,-0.0076,-0.011,-0.0148,-0.0184,-0.0198,-0.0218,-0.0237,-0.0265,-0.0274,-0.0263,-0.0283,-0.0283,-0.0268,-0.0287,-0.0273,-0.0284,-0.0284,-0.0285,-0.0285,0,0.0084,0.008,0.0064,0.0037,0.0027,0.0012,-0.0031,-0.0055,-0.0098,-0.0122,-0.0162,-0.0188,-0.0231,-0.023,-0.0276,-0.0266,-0.0276,-0.0287,-0.0288,-0.0287,-0.0283,-0.0268,-0.029,-0.0289,-0.0289,-0.0289,-0.0288,0,0.0084,0.0064,0.0055,0.0045,0.0017,0.0005,-0.0017,-0.0059,-0.0079,-0.0125,-0.0142,-0.0197,-0.022,-0.0248,-0.0281,-0.0276,-0.0317,-0.0314,-0.0316,-0.0315,-0.0318,-0.0316,-0.0334,-0.0334,-0.0334,-0.0334,-0.0334,0,0.008,0.0069,0.0061,0.0059,0.0042,0.0011,-0.0011,-0.0037,-0.0077,-0.0103,-0.0143,-0.0172,-0.0222,-0.0255,-0.0281,-0.0311,-0.0319,-0.0319,-0.0321,-0.0314,-0.0312,-0.0319,-0.0317,-0.0334,-0.0334,-0.0334,-0.0334,0,0.0087,0.0083,0.0074,0.0055,0.0051,0.0039,0.0008,-0.0008,-0.0046,-0.0078,-0.0091,-0.0152,-0.0198,-0.0241,-0.029,-0.0305,-0.0338,-0.0341,-0.0327,-0.0328,-0.0322,-0.032,-0.0343,-0.0343,-0.0343,-0.0343,-0.0343,0,0.0085,0.009,0.0086,0.0093,0.0093,0.0074,0.0065,0.0016,-0.0008,-0.0069,-0.0086,-0.0135,-0.0176,-0.0234,-0.0289,-0.0337,-0.0337,-0.0346,-0.0338,-0.0325,-0.0325,-0.0323,-0.0321,-0.0343,-0.0343,-0.0343,-0.0343,0,0.0091,0.0103,0.0109,0.0127,0.0129,0.0118,0.0094,0.0078,0.0016,-0.0019,-0.0071,-0.0116,-0.0167,-0.0229,-0.0263,-0.0301,-0.0342,-0.0345,-0.0345,-0.0338,-0.0325,-0.0325,-0.0322,-0.0343,-0.0343,-0.0343,-0.0343,0,0.0106,0.012,0.0145,0.0156,0.0163,0.0162,0.0142,0.0105,0.0071,-0.0008,-0.003,-0.0096,-0.0151,-0.0211,-0.0255,-0.0285,-0.0288,-0.0284,-0.0287,-0.0288,-0.0273,-0.0249,-0.0247,0,0,0,0,0,0.0119,0.0153,0.0169,0.0189,0.0194,0.0194,0.0161,0.0131,0.0064,0.0041,0.0004,-0.0048,-0.0122,-0.0173,-0.0197,-0.0249,-0.029,-0.0279,-0.0285,-0.0342,-0.0342,-0.0335,0,0,0,0,0,0,0.0147,0.0175,0.0179,0.0206,0.0222,0.0225,0.0205,0.0164,0.0133,0.0067,0.0025,-0.0035,-0.011,-0.0092,-0.0187,-0.0205,-0.0209,-0.0331,-0.0332,-0.0342,-0.0342,-0.0342,-0.0334,0,0,0,0,0]}]]